Weather Roundup
Issued by NWS

Home | Current Version | Previous Version | Graphics & Text | Print | Product List | Glossary Off
Versions: 1 2 3 4 5 6 7 8 9 10 11 12 13 14 15 16 17 18 19 20 21 22 23 24 25 26 27 28 29 30 31 32 33 34 35 36 37 38 39 40 41 42 43 44 45 46 47 48 49 50

000
NZUS93 KARX 250710
HRRWXR

CURRENT HOURLY OBSERVATIONS ACROSS
MUCH OF THE UPPER MISSISSIPPI VALLEY
NATIONAL WEATHER SERVICE LA CROSSE WI
100 AM CST SUN FEB 25 2018


...SOUTHEAST MINNESOTA...


CITY           SKY/WX    TMP DP  RH WIND       PRES   REMARKS
ROCHESTER      CLOUDY    20  18  92 W23       29.53R FOG     WCI   3
ROCHESTER/MAYO CLOUDY    22  20  95 W15G33    29.53R WCI   8
WINONA         CLOUDY    27  21  80 W12G20    29.53R WCI  16
AUSTIN         CLOUDY    21  18  86 W14G20    29.57R WCI   8
ALBERT LEA     CLOUDY    19  16  86 W9G18     29.57R WCI   9
DODGE CENTER   CLOUDY    19  18  93 W17       29.53R FOG     WCI   4
PRESTON        CLOUDY    20  17  88 W16G24    29.55R FOG     WCI   6
OWATONNA       CLOUDY    21  18  86 W23       29.55R FOG     WCI   5
FARIBAULT      CLOUDY    19  18  93 SW13      29.54R WCI   7
$$

...ELSEWHERE IN MINNESOTA...


CITY           SKY/WX    TMP DP  RH WIND       PRES   REMARKS
MINNEAPOLIS    CLOUDY    21  19  92 W15G21    29.50R WCI   8
INTNL FALLS    LGT SNOW  23  21  92 NE7       29.43F VSB 1   WCI  15
DULUTH         LGT SNOW  28  25  88 E15       29.32F VSB 3/4 WCI  16
RED WING       MIX PCPN  25  19  80 W15G24    29.50R WCI  12
REDWOOD FALLS  CLEAR     15  12  88 W18       29.58R WCI  -2
MANKATO        FLURRIES  19  15  84 W21       29.57R WCI   3
WORTHINGTON    LGT SNOW  14  11  87 W23       29.64R FOG     WCI  -5
FAIRMONT       CLOUDY    16  13  88 W24G30    29.62S WCI  -2
$$

...SOUTHWEST WISCONSIN...


CITY           SKY/WX    TMP DP  RH WIND       PRES   REMARKS
LA CROSSE      CLOUDY    31  25  78 W15G24    29.52R WCI  20
PRAIRIE DU CHI CLOUDY    29  22  75 W23G35    29.60R WCI  15
BOSCOBEL       CLOUDY    32  26  78 W13G28    29.57R WCI  22
LONE ROCK      CLOUDY    34  30  85 W22G36    29.52R WCI  22
PLATTEVILLE    CLOUDY    32  29  90 W25G36    29.58R WCI  19
FORT MC COY    CLOUDY    32  29  91 W12G23    29.47R WCI  23
CAMP DOUGLAS   CLOUDY    34  33  97 SW16G26   29.43S WCI  23
MAUSTON-NEW LI MIX PCPN  34  32  92 W7        29.44R WCI  28
VIROQUA        CLOUDY    28  27  99 W17G23    29.51R WCI  15
WIS DELLS      CLOUDY    33  32  96 W15G22    29.45R WCI  23
$$

...ELSEWHERE IN WISCONSIN...


CITY           SKY/WX    TMP DP  RH WIND       PRES   REMARKS
MILWAUKEE      LGT RAIN  40  39  97 SW9       29.42R FOG     WCI  34
MADISON        CLOUDY    35  33  92 W10G24    29.49R WCI  27
GREEN BAY      LGT RAIN  35  32  88 S8        29.40F WCI  29
EAU CLAIRE     CLOUDY    31  29  92 SW14G23   29.40S WCI  21
BLACK RVR FLS  CLOUDY    33  33 100 SW12G17   29.44R WCI  24
MEDFORD        MIX PCPN  30  29  96 S9        29.34F WCI  22
WAUSAU         LGT SNOW  32  32 100 SE7       29.34F FOG     WCI  26
WIS RAPIDS     LGT SNOW  33  30  88 MISG      29.41F FOG
MARSHFIELD     LGT SNOW  32  31  96 SW10      29.36F FOG     WCI  24
RICE LAKE      CLOUDY    30  30 100 S7        29.39R WCI  23
$$

...NORTHEAST IOWA...


CITY           SKY/WX    TMP DP  RH WIND       PRES   REMARKS
WATERLOO       CLOUDY    28  24  85 W21G35    29.65R WCI  15
DUBUQUE        CLOUDY    29  32 100 W28G35    29.60R WCI  14
DECORAH        CLOUDY    23  19  86 W18G38    29.57R WCI   9
MASON CITY     CLOUDY    20  18  92 W26G36    29.64R FOG     WCI   2
CHARLES CITY   CLOUDY    25  25 100 W22G37    29.62S WCI  10
OELWEIN        CLOUDY    27  27 100 W28G37    29.63R WCI  11
$$

...ELSEWHERE IN IOWA...


CITY           SKY/WX    TMP DP  RH WIND       PRES   REMARKS
DES MOINES     CLOUDY    31  27  85 W20       29.76R WCI  19
IOWA CITY      CLOUDY    33  26  75 W16       29.74R WCI  23
FORT DODGE     CLOUDY    21  17  84 W17       29.71R WCI   7
MARSHALLTOWN   CLOUDY    30  25  81 W21G33    29.69R WCI  17
CEDAR RAPIDS   CLOUDY    31  27  85 W22       29.68R WCI  18
$$

...NORTHERN ILLINOIS...


CITY           SKY/WX    TMP DP  RH WIND       PRES   REMARKS
CHICAGO-OHARE  CLOUDY    46  42  86 W24G35    29.49R
CHICAGO-MIDWAY LGT RAIN  48  45  89 W18G26    29.50R
MOLINE         CLOUDY    34  28  79 W29G48    29.69R WCI  20
ROCKFORD       CLOUDY    35  32  88 W25G36    29.58R WCI  23
PEORIA         CLOUDY    36  31  82 W20G36    29.74R WCI  25
$$

NOTE: "FAIR" INDICATES FEW OR NO CLOUDS BELOW 12,000 FEET WITH NO
SIGNIFICANT WEATHER AND/OR OBSTRUCTIONS TO VISIBILITY. WIND
SPEEDS ARE IN MILES-PER-HOUR.




USA.gov is the U.S. government's official web portal to all federal, state and local government web resources and services.